This is the latest recevied weather packets stored in our database for station/object SV9TNF-2. If no packets are shown the sender has not sent any weather packets the latest 10 day(s).
| Time | Temp. | Humidity | Pressure | Rain* | Wind** | Luminosity | Snow |
|---|---|---|---|---|---|---|---|
| 1777983601 | 23.33° C | 32% | 1023.7 hPa | 0 mm | 3.58 m/s, 347° | - | - |
| 1777983301 | 23.33° C | 36% | 1023.7 hPa | 0 mm | 5.36 m/s, 354° | - | - |
| 1777983000 | 23.89° C | 38% | 1023.7 hPa | 0 mm | 2.68 m/s, 95° | - | - |
| 1777982700 | 23.89° C | 33% | 1023.7 hPa | 0 mm | 0.89 m/s, 117° | - | - |
| 1777982400 | 22.22° C | 34% | 1023.7 hPa | 0 mm | 5.81 m/s, 4° | - | - |
| 1777982100 | 22.78° C | 28% | 1023.7 hPa | 0 mm | 5.36 m/s, 22° | - | - |
| 1777981800 | 23.33° C | 28% | 1023.7 hPa | 0 mm | 7.15 m/s, 23° | - | - |
| 1777981500 | 25° C | 23% | 1023.7 hPa | 0 mm | 2.68 m/s, 26° | - | - |
| 1777981384 | 25° C | 24% | 1023.7 hPa | 0 mm | 0.45 m/s, 328° | - | - |
| 1777981084 | 25.56° C | 22% | 1023.7 hPa | 0 mm | 2.24 m/s, 17° | - | - |
| 1777980783 | 25.56° C | 23% | 1024.4 hPa | 0 mm | 4.92 m/s, 284° | - | - |
| 1777980483 | 24.44° C | 24% | 1024.4 hPa | 0 mm | 4.92 m/s, 9° | - | - |
| 1777980183 | 26.11° C | 24% | 1023.7 hPa | 0 mm | 2.68 m/s, 258° | - | - |
| 1777979883 | 26.11° C | 21% | 1023.7 hPa | 0 mm | 2.68 m/s, 265° | - | - |
| 1777979583 | 26.67° C | 20% | 1023.7 hPa | 0 mm | 4.92 m/s, 260° | - | - |
| 1777979283 | 25.56° C | 20% | 1023.7 hPa | 0 mm | 2.68 m/s, 263° | - | - |
| 1777978983 | 25.56° C | 20% | 1023.7 hPa | 0 mm | 2.68 m/s, 232° | - | - |
| 1777978683 | 24.44° C | 19% | 1024.4 hPa | 0 mm | 3.13 m/s, 268° | - | - |
| 1777978383 | 27.22° C | 19% | 1024.4 hPa | 0 mm | 1.79 m/s, 291° | - | - |
| 1777978082 | 26.11° C | 19% | 1024.4 hPa | 0 mm | 2.68 m/s, 230° | - | - |
| 1777977782 | 25° C | 21% | 1024.4 hPa | 0 mm | 3.58 m/s, 176° | - | - |
| 1777977482 | 24.44° C | 18% | 1024.4 hPa | 0 mm | 1.79 m/s, 317° | - | - |
| 1777977182 | 25° C | 19% | 1024.4 hPa | 0 mm | 1.79 m/s, 342° | - | - |
| 1777976882 | 25° C | 21% | 1024.4 hPa | 0 mm | 2.68 m/s, 280° | - | - |
| 1777976582 | 24.44° C | 24% | 1024.4 hPa | 0 mm | 2.68 m/s, 343° | - | - |
* Rain latest hour (hover to see other rain measurements)
** Current wind speed in m/s (hover to see current wind gust speed)